Regional Weather Roundup
Issued by NWS Columbia, SC

Home | Current Version | Previous Version | Text Only | Print | Product List | Glossary On
Versions: 1 2 3 4 5 6 7 8 9 10 11 12 13 14 15 16 17 18 19 20 21 22 23 24 25 26 27 28 29 30 31 32 33 34 35 36 37 38 39 40 41 42 43 44 45 46 47 48 49 50
000
ASUS42 KCAE 051510
RWRCAE
REGIONAL WEATHER ROUNDUP
NATIONAL WEATHER SERVICE COLUMBIA SC
1000 AM EST MON DEC 05 2016

NOTE: "FAIR" INDICATES FEW OR NO CLOUDS BELOW 12,000 FEET WITH NO
SIGNIFICANT WEATHER AND/OR OBSTRUCTIONS TO VISIBILITY.

NOT ALL STATIONS ARE QUALITY CONTROLLED BY THE NATIONAL
WEATHER SERVICE. USE DATA WITH CAUTION...ESPECIALLY
DEWPOINT OBSERVATIONS.

SCZ001>056-GAZ040-063>065-077-051600-
...UPSTATE SOUTH CAROLINA...

CITY           SKY/WX    TMP DP  RH WIND       PRES   REMARKS
ANDERSON       MOSUNNY   48  44  86 CALM      30.04R
LIBERTY        CLOUDY    44  44  97 W3        30.03R FOG
SPARTANBURG    CLOUDY    43  41  93 CALM      30.03R FOG
CLEMSON        CLOUDY    47  43  86 CALM      30.05R
GREENVILLE     PTSUNNY   47  44  90 CALM      30.04R
GREENWOOD      CLOUDY    46  43  89 CALM      30.06R
GREER          CLOUDY    45  43  93 CALM      30.02R
ROCK HILL      MOSUNNY   47  43  86 CALM      30.04R
CHESTER        CLOUDY    46  45  93 NE3       30.04R
LAURENS          N/A     45  43  93 CALM      30.04R


...CENTRAL SOUTH CAROLINA...

CITY           SKY/WX    TMP DP  RH WIND       PRES   REMARKS
COLUMBIA APT   PTSUNNY   50  45  83 CALM      30.02R
COLUMBIA OWENS CLOUDY    51  45  79 CALM      30.03S
ORANGEBURG     CLOUDY    49  46  90 NE3       30.03R
NEWBERRY       CLOUDY    45  43  93 CALM      30.07R
AIKEN          FAIR      46  45  93 CALM      30.04R
LANCASTER      CLOUDY    46  46 100 CALM      30.04R
WINNSBORO      CLOUDY    46  45  93 N3        30.02R


...EASTERN AND COASTAL SOUTH CAROLINA...

CITY           SKY/WX    TMP DP  RH WIND       PRES   REMARKS
N MYRTLE BCH   CLOUDY    50  49  96 N8        30.01R
CONWAY         CLOUDY    46  46 100 CALM      30.03R
MARION         CLOUDY    46  45  93 N5        30.03S
HARTSVILLE     FAIR      46  45  93 CALM      30.02S
FLORENCE       CLOUDY    48  46  93 N6        30.03S
DARLINGTON     PTSUNNY   48  45  89 CALM      30.03S
CHARLESTON APT CLOUDY    53  50  89 N6        30.03R FOG
WALTERBORO     CLOUDY    52 N/A N/A CALM      30.04R HAZE
BEAUFORT       FOG       54  53  97 N8        30.03R VSB 1
HILTON HEAD    CLOUDY    57  55  94 N9        30.02R FOG


...EASTERN GEORGIA...

CITY           SKY/WX    TMP DP  RH WIND       PRES   REMARKS
AUGUSTA BUSH F CLOUDY    50  46  86 CALM      30.03R
AUGUSTA DANIEL PTSUNNY   50  45  83 CALM      30.03R
THOMSON        CLOUDY    50  50  99 CALM      30.08R
WASHINGTON     CLOUDY    48  48 100 CALM      30.04R
CLAXTON        CLOUDY   N/A N/A N/A NW5       30.02S
SYLVANIA       CLOUDY   N/A N/A N/A CALM      30.03F
STATESBORO     CLOUDY    52  51  98 CALM      30.02S
SAVANNAH       CLOUDY    56  53  90 N7        30.02R FOG


...SOUTHERN NORTH CAROLINA...

CITY           SKY/WX    TMP DP  RH WIND       PRES   REMARKS
CHARLOTTE      PTSUNNY   48  43  82 N5        30.03R
MONROE         MOSUNNY   47  42  83 NE5       30.02R
WADESBORO      CLOUDY    45  42  88 CALM      30.04R
ROCKINGHAM     MOSUNNY   46  45  95 N3        30.02
RUTHERFORDTON  CLOUDY    43  43 100 CALM      30.02S
ASHEVILLE      CLOUDY    49  43  80 N10       30.03R

$$



USA.gov is the U.S. government's official web portal to all federal, state and local government web resources and services.